FW5420 Weather Reports


time (UTC)temp
C
wind
direction
speed
KPH
gust
KPH
rain 1hr
cm
rain 24hr
cm
rain mn
cm
humidity
%
barometer
mb
20260906134553 22 73 1.6 9.7 0.00 0.00 0.00 91 1017.4
20260906133112 22 84 1.6 8.0 0.00 0.00 0.00 91 1017.4
20260906131610 22 46 4.8 8.0 0.00 0.00 0.00 91 1017.3
20260906130055 22 65 1.6 11.3 0.00 0.00 0.00 91 1017.3
20260906124550 22 81 1.6 11.3 0.00 0.00 0.00 91 1017.1
20260906123049 22 91 0.0 6.4 0.00 0.00 0.00 91 1016.9
20260906121549 22 51 1.6 9.7 0.00 0.00 0.00 91 1016.7
20260906120054 22 44 0.0 4.8 0.00 0.00 0.00 91 1016.7
20260906114542 22 61 1.6 6.4 0.00 0.00 0.00 91 1016.5
20260906113041 22 71 1.6 6.4 0.00 0.00 0.00 91 1016.2
20260906111540 22 68 0.0 3.2 0.00 0.00 0.00 91 1016.2
20260906110040 22 55 0.0 4.8 0.00 0.00 0.00 91 1016.1
20260906104539 22 92 0.0 4.8 0.00 0.00 0.00 91 1016.1
20260906103036 22 96 0.0 6.4 0.00 0.00 0.00 91 1015.9
20260906101536 22 78 0.0 6.4 0.00 0.00 0.00 91 1015.6
20260906100036 22 96 1.6 9.7 0.00 0.00 0.00 91 1015.4
20260906094533 22 102 0.0 6.4 0.00 0.00 0.00 91 1015.4
20260906093042 22 105 0.0 14.5 0.00 0.00 0.00 91 1015.3
20260906091531 22 101 0.0 12.9 0.00 0.00 0.00 90 1015.3
20260906090030 22 42 3.2 8.0 0.00 0.00 0.00 90 1015.2
20260906084529 22 126 0.0 4.8 0.00 0.00 0.00 89 1015.4
20260906083028 22 98 1.6 9.7 0.00 0.00 0.00 89 1015.2
20260906081528 22 47 3.2 14.5 0.00 0.00 0.00 88 1015.2
20260906080026 22 73 4.8 16.1 0.00 0.00 0.00 88 1015.1
20260906074523 22 113 3.2 12.9 0.00 0.00 0.00 89 1015.1
20260906073026 23 84 3.2 12.9 0.00 0.00 0.00 90 1015.2
20260906071521 23 47 3.2 12.9 0.00 0.00 0.00 90 1015.3
20260906070020 23 55 1.6 11.3 0.00 0.00 0.00 90 1015.4
20260906064522 23 102 3.2 8.0 0.00 0.00 0.00 90 1015.6
20260906063016 23 117 0.0 6.4 0.00 0.00 0.00 89 1015.5
20260906061514 23 93 1.6 6.4 0.00 0.00 0.00 89 1015.6
20260906060020 23 59 0.0 8.0 0.00 0.00 0.00 88 1015.5
20260906054508 24 63 3.2 8.0 0.00 0.00 0.00 88 1015.3
20260906053015 24 55 3.2 9.7 0.00 0.00 0.00 87 1015.1
20260906051503 25 78 1.6 8.0 0.00 0.00 0.00 86 1014.9
20260906050100 25 90 0.0 8.0 0.00 0.00 0.00 86 1014.7
20260906044558 25 84 0.0 9.7 0.00 0.00 0.00 85 1014.5
20260906043058 25 119 1.6 9.7 0.00 0.00 0.00 84 1014.5
20260906041556 26 46 1.6 22.5 0.00 0.00 0.00 84 1014.3
20260906040055 26 88 4.8 16.1 0.00 0.00 0.00 84 1014.2
20260906034553 26 117 3.2 20.9 0.00 0.00 0.00 84 1014.0
20260906033059 27 5 6.4 16.1 0.00 0.00 0.00 84 1013.9
20260906031558 27 71 6.4 19.3 0.00 0.00 0.00 85 1013.7
20260906030054 27 57 4.8 12.9 0.00 0.00 0.00 86 1013.7
20260906024549 27 65 4.8 14.5 0.00 0.00 0.00 85 1013.4
20260906023049 28 73 3.2 14.5 0.00 0.00 0.00 84 1013.2
20260906021557 28 59 3.2 11.3 0.00 0.00 0.00 84 1013.2
20260906020048 28 55 1.6 6.4 0.00 0.00 0.00 84 1013.0
20260906014549 28 344 0.0 4.8 0.00 0.00 0.00 84 1012.7
20260906013048 29 55 0.0 3.2 0.00 0.00 0.00 83 1012.5
20260906011602 29 57 0.0 0.0 0.00 0.00 0.00 81 1012.4
20260906010047 30 57 0.0 3.2 0.00 0.00 0.00 80 1012.3
20260906004546 30 355 0.0 8.0 0.00 0.00 0.00 79 1012.2
20260906003046 31 329 1.6 6.4 0.00 0.00 0.00 77 1012.2
20260906001546 31 355 3.2 6.4 0.00 0.00 0.00 75 1012.2
20260906000045 31 57 4.8 11.3 0.00 0.00 0.00 74 1012.2
20260905234545 32 45 3.2 12.9 0.00 0.00 0.00 70 1012.1
20260905233103 33 23 1.6 9.7 0.00 0.00 0.00 69 1012.1
20260905231551 33 327 3.2 14.5 0.00 0.00 0.00 67 1012.1
20260905230046 33 15 4.8 14.5 0.00 0.00 0.00 64 1011.9
20260905224604 34 59 3.2 14.5 0.00 0.00 0.00 64 1011.9
20260905223041 33 355 4.8 12.9 0.00 0.00 0.00 65 1011.9
20260905221542 34 40 4.8 14.5 0.00 0.00 0.00 65 1012.0
20260905220047 33 53 4.8 14.5 0.00 0.00 0.00 66 1011.9
20260905214541 34 66 8.0 14.5 0.00 0.00 0.00 66 1012.0
20260905213036 34 55 8.0 16.1 0.00 0.00 0.00 66 1011.9
20260905211533 33 340 4.8 14.5 0.00 0.00 0.00 67 1012.0
20260905210031 34 319 8.0 22.5 0.00 0.00 0.00 66 1012.1
20260905204523 35 355 8.0 17.7 0.00 0.00 0.00 62 1012.2
20260905203021 35 337 6.4 19.3 0.00 0.00 0.00 58 1012.3
20260905201526 35 347 9.7 16.1 0.00 0.00 0.00 58 1012.4
20260905200020 35 328 8.0 14.5 0.00 0.00 0.00 58 1012.5
20260905194519 35 36 3.2 16.1 0.00 0.00 0.00 59 1012.6
20260905193018 35 297 4.8 17.7 0.00 0.00 0.00 59 1012.8
20260905191518 35 14 1.6 16.1 0.00 0.00 0.00 59 1012.8
20260905190016 35 360 6.4 16.1 0.00 0.00 0.00 56 1012.7
20260905184513 35 43 3.2 14.5 0.00 0.00 0.00 57 1012.8
20260905183012 35 9 4.8 17.7 0.00 0.00 0.00 58 1013.0
20260905181510 35 16 6.4 14.5 0.00 0.00 0.00 59 1013.1
20260905180012 34 344 6.4 14.5 0.00 0.00 0.00 60 1013.3
20260905174513 34 277 3.2 16.1 0.00 0.00 0.00 61 1013.3
20260905173018 33 350 6.4 14.5 0.00 0.00 0.00 61 1013.6
20260905171509 34 360 4.8 12.9 0.00 0.00 0.00 62 1013.5
20260905170006 35 277 1.6 9.7 0.00 0.00 0.00 59 1013.8
20260905164501 34 23 3.2 11.3 0.00 0.00 0.00 63 1013.6
20260905163103 34 247 1.6 11.3 0.00 0.00 0.00 63 1013.6
20260905161556 33 283 0.0 8.0 0.00 0.00 0.00 64 1013.6
20260905160051 32 277 4.8 12.9 0.00 0.00 0.00 66 1013.8
20260905154547 32 235 3.2 11.3 0.00 0.00 0.00 68 1013.6
20260905153044 32 242 3.2 11.3 0.00 0.00 0.00 69 1013.6
20260905151543 31 355 0.0 4.8 0.00 0.00 0.00 68 1013.5
20260905150039 32 15 0.0 6.4 0.00 0.00 0.00 69 1013.4
20260905144541 31 269 3.2 6.4 0.00 0.00 0.00 72 1013.3
20260905143033 30 249 0.0 3.2 0.00 0.00 0.00 73 1013.3
20260905141530 29 247 4.8 8.0 0.00 0.00 0.00 74 1013.1